Location: Beallmount
(39.0601°N, 77.2741°W)
Time: 03:56:18
(UTC+00:00)

Daily predictions for brighter satellites

Satellite Brightness Start Highest point End
(mag) Time Altitude Azimuth Time Altitude Azimuth Time Altitude Azimuth
USA 238 DEB 4.0 00:47:03 10° NNW 00:54:26 77° NE 01:02:04 10° SE
USA 238 4.0 00:47:10 10° NNW 00:54:32 77° NE 01:02:10 10° SE
Cosmos 44 Rocket 4.4 00:50:47 10° SSE 00:55:02 27° ESE 00:59:20 10° NE
CSL-04 Rocket 4.2 00:50:57 10° S 00:56:22 63° WSW 01:01:44 10° NNW
NOSS 7 (H) 4.5 00:53:16 10° SSW 00:57:15 87° WNW 01:00:22 10° NNE
ISS -0.5 00:57:27 10° N 00:57:45 10° N 00:58:04 10° N
Ariane Rocket 3.4 00:58:43 10° SE 01:03:33 46° ENE 01:08:23 10° N
ERS-2 2.5 01:02:58 10° NNE 01:06:26 40° E 01:09:52 10° S
SEDSat Delta rocket 4.3 01:03:51 10° SSW 01:06:44 19° SSE 01:09:41 10° ESE
Helios 1A Rocket 2.9 01:03:21 10° SSE 01:07:22 86° W 01:11:26 10° NNW
OAO 2 Rocket 3.5 01:04:36 10° WSW 01:09:32 54° S 01:14:23 10° ESE
Cosmos 1818 4.2 01:05:03 10° SW 01:10:25 63° WNW 01:15:52 10° NNE
MOS 1 4.3 01:10:19 10° SSE 01:15:56 69° ENE 01:21:34 10° N
Cosmos 2221 3.8 01:12:47 10° NNE 01:16:20 24° ENE 01:19:21 13° SE
Cosmos 1242 Rocket 3.3 01:13:36 10° N 01:16:57 35° ENE 01:19:51 12° SE
USA 307 2.9 01:13:34 10° NW 01:17:51 82° NE 01:21:34 13° SE
BREEZE-M DEB (TANK) 2.8 01:15:11 10° SSW 01:17:53 47° SE 01:24:50 10° ENE
Cosmos 1697 Rocket 3.5 01:18:03 10° N 01:23:19 38° ENE 01:27:44 14° SE
Meteor 2-13 Rocket 4.5 01:19:48 10° S 01:25:49 62° E 01:31:49 10° NNE
Cosmos 2082 Rocket 2.7 01:22:52 10° S 01:27:56 36° ESE 01:33:02 10° NE
Hubble Space Telescope 2.5 01:28:14 10° SSW 01:30:47 16° S 01:31:57 15° SSE
IGS 5A 3.7 01:27:47 13° SSE 01:31:19 52° ENE 01:35:22 10° N
Cosmos 1833 Rocket 2.7 01:25:59 10° SSW 01:31:37 84° ESE 01:37:17 10° NNE
Cosmos 1953 Rocket 3.9 01:27:43 10° SSW 01:32:11 71° W 01:36:40 10° N
SPOT 3 Rocket 4.0 01:28:49 13° SE 01:33:08 47° ENE 01:38:08 10° N
USA 305 3.1 01:30:25 10° NW 01:34:33 65° SW 01:37:38 17° SSE
Cosmos 1606 4.0 01:31:30 10° NNE 01:34:37 24° ENE 01:36:14 18° ESE
USA 308 3.0 01:30:27 10° NW 01:34:42 72° SW 01:37:46 18° SE
USA 186 4.5 01:33:53 10° SW 01:36:13 18° W 01:38:28 10° NW
Cosmos 773 Rocket 4.2 01:31:53 10° S 01:36:54 50° ESE 01:41:54 10° NNE
Resurs 1-3 3.9 01:34:15 10° S 01:38:36 69° WSW 01:42:59 10° NNW
Cosmos 1125 Rocket 4.0 01:37:43 10° NNW 01:42:57 60° WSW 01:48:09 10° S
Cosmos 2279 Rocket 3.9 01:40:46 10° N 01:46:59 82° E 01:52:57 11° S
Cosmos 2151 4.3 01:47:17 20° ESE 01:48:14 22° E 01:51:31 10° NE
SWAS 4.4 01:44:37 10° NNW 01:48:55 87° ENE 01:51:39 22° SSE
Landsat 7 3.8 01:49:10 17° SSE 01:52:54 82° ENE 01:57:40 10° N
Cosmos 2058 3.2 01:50:36 10° SSW 01:54:43 68° W 01:58:54 10° N
COSMOS 2406 3.5 01:49:11 10° SSW 01:54:50 70° WNW 02:00:31 10° NNE
Cosmos 1825 3.6 01:52:38 10° SSW 01:56:08 38° W 01:59:39 10° N
Cosmos 1842 Rocket 3.6 01:52:12 10° N 01:56:39 67° E 01:59:20 23° SSE
Cosmos 2369 4.0 01:52:42 10° NNW 01:58:13 51° ENE 02:01:22 24° SE
USA 306 3.8 01:54:33 10° WNW 01:58:33 39° SW 02:00:51 21° S
OBJECT-B 4.0 01:59:28 10° WSW 02:00:16 11° W 02:01:02 10° WNW
ERS-1 Rocket 4.1 02:00:52 22° ESE 02:02:54 29° ENE 02:07:10 10° N
Spot 2 Rocket 4.0 02:01:34 25° SE 02:04:02 43° ENE 02:08:52 10° N
Cosmos 1076 Rocket 3.5 02:02:52 22° S 02:05:30 64° E 02:09:49 10° NNE
Atlas Centaur 2 3.4 02:04:05 10° SSW 02:04:35 12° SSW 02:04:35 12° SSW
Cosmos 1656 4.5 02:01:40 10° NW 02:07:02 46° WSW 02:11:34 14° S
ATLAS 2AS CENTAUR R/B 3.2 01:59:11 10° SW 02:07:05 75° NW 02:14:54 10° NNE
Cosmos 1980 Rocket 2.7 02:04:05 10° N 02:09:30 46° ENE 02:12:06 28° ESE
Resurs 01 Rocket 2.3 02:08:51 16° S 02:12:13 53° W 02:16:34 10° NNW
Nadezhda 4 Rocket 3.9 02:07:55 14° S 02:13:19 77° E 02:19:32 10° N
Cosmos 2322 Rocket 4.4 02:14:02 10° NNE 02:16:18 12° NE 02:18:34 10° ENE
Cosmos 1538 Rocket 4.0 02:13:43 22° S 02:17:00 57° ESE 02:22:06 10° NNE
Cosmos 1437 4.2 02:15:43 10° NNW 02:18:07 27° W 02:19:12 20° SW
Cosmos 158 Rocket 4.3 02:18:29 34° SE 02:19:52 42° ESE 02:24:45 10° NNE
RESURS DK-1 2.4 02:18:43 10° SSW 02:22:51 78° WNW 02:27:01 10° NNE
Cosmos 2098 Rocket 2.2 02:22:42 55° SW 02:23:10 69° W 02:26:15 10° N
OAO 3 Copernicus 4.4 02:20:33 10° WSW 02:25:26 53° S 02:26:48 40° SE
GENESIS II 4.1 02:21:55 10° NNW 02:25:48 76° ENE 02:26:31 56° SE
Meteor 2-19 Rocket 4.4 02:22:44 26° SSE 02:26:09 65° E 02:32:08 10° NNE
USA 245 4.1 02:22:59 28° SSE 02:26:10 88° WSW 02:31:09 10° NNW
USA 267 3.2 02:20:10 10° NE 02:26:41 67° SE 02:33:11 10° SW
Cosmos 1271 Rocket 4.1 02:24:49 10° NNE 02:28:03 25° ENE 02:28:03 25° ENE
BREEZE-M DEB (TANK) 4.5 02:24:58 10° NW 02:28:44 54° NE 02:36:58 18° ESE
ATLAS 3B R/B 3.3 02:22:08 10° NNW 02:29:01 49° NE 02:32:46 27° ESE
Cosmos 1633 3.3 02:29:09 25° SW 02:30:58 50° W 02:34:30 10° N
SPOT 1/Viking Rocket 3.8 02:28:26 27° S 02:31:16 67° WSW 02:36:28 10° NNW
ISS -0.9 02:33:57 10° NNW 02:35:47 14° NNE 02:37:36 10° NE
Cosmos 2360 4.5 02:30:42 10° NNW 02:36:18 62° WSW 02:38:56 31° S
ARIANE 5 R/B 2.6 02:38:33 52° SSE 02:39:37 80° ENE 02:44:06 10° N
Cosmos 1933 3.5 02:37:03 10° N 02:41:02 52° E 02:41:03 52° E
SL-16 R/B 3.6 02:37:20 10° N 02:41:56 25° NE 02:43:41 21° E
SPOT 5 2.5 02:44:08 61° SE 02:44:43 70° ENE 02:49:02 10° N
CARTOSAT-1 3.9 02:51:42 47° SSW 02:52:39 59° W 02:56:55 10° NNW
Cosmos 2221 4.5 02:50:18 10° NW 02:53:46 24° W 02:56:11 15° SW
OAO 2 Rocket 4.0 02:49:21 10° W 02:53:28 36° SSW 02:53:28 36° SSW
Meteor 1-26 Rocket 4.2 02:57:11 10° N 03:03:11 75° E 03:04:28 55° SSE
Cosmos 923 Rocket 3.9 03:03:16 62° SE 03:03:44 66° ESE 03:09:03 10° NNE
Cosmos 371 Rocket 3.2 02:59:48 10° NNW 03:04:37 78° WSW 03:05:07 69° SSW
Terra 1.6 03:04:43 73° SE 03:05:07 81° ENE 03:09:55 10° N
ERBS 3.8 03:03:40 10° NW 03:05:39 34° NW 03:05:39 34° NW
Cosmos 1697 Rocket 4.2 03:02:18 10° NW 03:07:06 29° WSW 03:09:29 21° SW
Cosmos 2082 Rocket 3.9 03:07:05 10° WSW 03:12:01 31° WNW 03:16:59 10° N
Cosmos 2278 3.9 03:09:44 10° NNW 03:15:19 63° WSW 03:16:22 53° SSW
Cosmos 1766 Rocket 3.7 03:18:52 69° NNE 03:18:52 69° NNE 03:22:46 10° N
Meteor 2-14 Rocket 4.4 03:17:55 58° SE 03:18:41 64° E 03:24:45 10° NNE
BREEZE-M R/B 4.4 03:14:32 10° SW 03:23:48 - ENE 03:17:24 26° SW
Cosmos 1812 4.2 03:17:03 10° N 03:19:23 29° NE 03:19:23 29° NE
Cosmos 1782 3.4 03:20:00 10° N 03:23:15 56° NNW 03:23:15 56° NNW
Cosmos 2333 Rocket 4.5 03:23:01 10° NNE 03:25:27 13° NE 03:27:39 10° ENE
Cosmos 2360 Rocket 3.5 03:27:28 10° N 03:32:13 27° ENE 03:33:01 26° ENE
Cosmos 1328 Rocket 4.0 03:30:25 10° N 03:34:03 57° NNE 03:34:03 57° NNE
Cosmos 2112 Rocket 3.9 03:38:50 82° NE 03:38:50 82° NE 03:43:56 10° NNE
Cosmos 332 Rocket 4.1 03:35:07 10° NNW 03:39:38 58° W 03:39:38 58° W
Cosmos 1680 Rocket 3.5 03:40:31 76° W 03:40:43 77° WNW 03:46:01 10° NNE
ERS-1 Rocket 4.2 03:40:52 30° WSW 03:41:34 31° W 03:46:01 10° NW
Cosmos 1151 Rocket 3.8 03:41:11 10° NNW 03:44:42 50° NW 03:44:42 50° NW
Okean 3 Rocket 4.5 03:50:13 44° WNW 03:50:13 44° WNW 03:54:15 10° N
Cosmos 1980 Rocket 3.8 03:48:48 10° NW 03:53:08 23° W 03:53:52 22° WSW
BREEZE-M DEB (TANK) 3.6 03:49:19 10° WNW 03:53:44 76° SW 03:55:45 54° SE
Cosmos 2322 Rocket 2.2 03:55:38 10° NNW 04:00:59 76° NNE 04:00:59 76° NNE
USA 267 4.5 04:03:27 10° NE 04:09:26 39° NNW 04:15:24 10° W
Meteor 2-6 Rocket 4.4 04:05:41 10° NNW 04:10:37 61° WNW 04:10:37 61° WNW
ISS -0.7 04:09:54 10° NW 04:10:34 15° NW 04:10:34 15° NW
Cosmos 2315 Rocket 4.2 04:11:24 10° N 04:17:33 61° ENE 04:17:33 61° ENE
ATLAS 3B R/B 3.6 04:13:07 10° NW 04:19:35 36° WSW 04:20:00 36° WSW
Cosmos 2237 4.3 04:15:15 10° NNW 04:20:24 73° N 04:20:24 73° N
Meteor 1-27 Rocket 3.9 04:17:32 10° N 04:22:32 66° NNE 04:22:32 66° NNE
Cosmos 1624 Rocket 4.4 04:18:01 10° NNW 04:22:13 59° NNW 04:22:13 59° NNW
COSMOS 2428 4.3 04:18:53 10° N 04:23:25 24° NE 04:24:20 23° ENE
SL-16 R/B 2.9 04:20:50 10° NW 04:25:32 45° W 04:25:32 45° W
Cosmos 2219 Rocket 3.4 04:24:22 10° N 04:29:18 31° ENE 04:29:34 31° ENE
Cosmos 1655 Rocket 4.5 04:32:56 50° W 04:33:32 52° W 04:39:45 10° N
Cosmos 2266 Rocket 4.3 04:37:31 53° W 04:37:44 53° W 04:43:45 10° N
USA 234 3.1 04:41:00 86° S 04:41:07 88° SW 04:47:43 10° NW
COSMOS 2455 3.2 04:44:29 56° NE 04:44:29 56° NE 04:49:17 10° NNE
BREEZE-M DEB (TANK) 4.2 04:33:55 10° WSW 04:48:02 86° NNW 04:52:18 10° ENE
Cosmos 1452 Rocket 4.2 04:47:53 10° N 04:52:03 49° NNE 04:52:03 49° NNE
ALOS 2 4.2 04:56:16 32° NNW 04:56:16 32° NNW 04:58:45 10° NNW
ATLAS 5 CENTAUR R/B 4.0 05:05:04 10° NNW 05:09:52 27° NE 05:12:56 19° E
Cosmos 2333 Rocket 2.6 05:04:57 10° NNW 05:09:38 61° N 05:09:38 61° N
Lacrosse 5 4.4 05:18:45 12° ENE 05:18:45 12° ENE 05:19:10 10° ENE
Cosmos 2360 Rocket 3.3 05:11:04 10° NW 05:14:46 34° WNW 05:14:46 34° WNW
Resurs 1-4 Rocket 4.4 05:20:27 10° ENE 05:22:21 13° E 05:22:21 13° E
Nadezhda 1 Rocket 4.3 05:19:03 10° N 05:25:20 58° ENE 05:25:20 58° ENE
Cosmos 2322 4.2 05:20:06 10° NNW 05:24:37 57° NW 05:24:37 57° NW
NOSS 3-1 (C) 4.0 05:22:08 10° NNW 05:29:58 90° ENE 05:31:18 68° SSE
Cosmos 2297 Rocket 3.2 05:37:04 36° ENE 05:37:04 36° ENE 05:41:07 10° NE
USA 229 DEB 4.1 05:33:57 10° NNW 05:41:21 70° NE 05:43:12 53° ESE
USA 229 4.1 05:34:03 10° NNW 05:41:27 69° NE 05:43:21 52° ESE
Cosmos 2237 Rocket 3.3 05:38:30 10° N 05:43:44 36° ENE 05:44:36 34° E
Cosmos 2227 Rocket 3.3 05:47:43 34° E 05:47:43 34° E 05:51:50 10° NE
Cosmos 1269 Rocket 4.5 06:01:46 58° NNE 06:01:46 58° NNE 06:06:00 10° NNE
Meteor 2-4 Rocket 3.9 05:54:57 10° NNW 06:00:14 70° NW 06:00:14 70° NW
CZ-2D R/B 3.4 05:56:41 10° NE 06:01:02 30° E 06:01:02 30° E
NOSS 3-1 (A) 4.1 05:54:01 10° NNW 06:01:51 89° ENE 06:04:02 56° SE
ADEOS II 4.3 06:00:35 10° ENE 06:03:23 14° E 06:03:49 14° E
SL-16 R/B 4.4 06:03:04 10° N 06:07:16 21° NE 06:11:25 10° ESE
COSMOS 2428 3.6 06:02:28 10° NNW 06:06:19 38° WNW 06:06:19 38° WNW
Cosmos 2219 Rocket 3.6 06:08:12 10° NW 06:11:15 27° WNW 06:11:15 27° WNW
Helios 1A 4.3 06:17:21 38° NNE 06:17:21 38° NNE 06:20:09 10° N
Okean 1-7 4.4 06:18:22 10° N 06:20:56 36° N 06:20:56 36° N
Cosmos 1302 Rocket 4.3 06:19:24 10° NNW 06:23:41 61° NNW 06:23:41 61° NNW
Cosmos 909 Rocket 4.0 06:32:17 76° SSW 06:32:53 90° E 06:40:12 10° NNE
Cosmos 2219 3.2 06:34:37 76° NW 06:34:37 76° NW 06:40:16 10° NNE
Cosmos 1709 Rocket 4.2 06:37:29 57° W 06:37:40 58° W 06:43:55 10° N
NOSS 0 Rocket 4.3 06:33:27 10° NNW 06:38:37 49° W 06:38:37 49° W
Helios 1B rocket 3.9 06:35:46 10° NNE 06:38:41 32° ENE 06:38:41 32° ENE
Cosmos 1066 Rocket 4.1 06:35:41 10° N 06:41:36 90° ENE 06:41:47 85° S
MOZ.5/SAFIR/RUBIN 5/SL-8 4.4 06:47:17 48° NW 06:47:17 48° NW 06:50:50 10° NNW
Timation 2 Rocket 3.7 06:46:12 81° SSW 06:46:31 89° WNW 06:52:36 10° NNE
Cosmos 2084 Rocket 4.1 06:49:03 10° NNW 06:52:38 53° NNE 06:52:38 53° NNE
IDEFIX/ARIANE 42P 4.3 06:49:57 10° NE 06:54:04 23° E 06:55:37 20° ESE
ATLAS 5 CENTAUR R/B 2.5 06:49:01 10° NW 06:54:21 59° W 06:54:21 59° W
Cosmos 2082 3.6 06:54:29 70° SE 06:54:51 72° ESE 07:00:34 10° NNE
Cosmos 2251 Rocket 3.5 06:56:04 68° ESE 06:56:10 69° ESE 07:01:26 10° NNE
Meteor 1-11 Rocket 4.1 06:56:39 49° WNW 06:56:39 49° WNW 07:01:56 10° N
Cosmos 1536 4.4 06:58:20 29° NNW 06:58:20 29° NNW 07:00:41 10° N
Lacrosse 5 2.1 06:57:57 60° NW 06:58:00 61° NW 07:03:02 10° NE
Cosmos 2184 Rocket 4.0 06:59:24 59° SSE 07:00:36 78° E 07:06:52 10° N
SL-16 R/B 2.4 07:00:09 58° SSE 07:01:28 90° WSW 07:07:41 10° NNW
Resurs 1-4 Rocket 2.0 06:57:58 10° N 07:03:16 70° WNW 07:03:26 69° W
Cosmos 1980 4.3 06:58:10 10° NW 07:02:27 41° WNW 07:02:27 41° WNW
Cosmos 2154 Rocket 4.3 07:05:52 42° SSE 07:07:46 60° E 07:13:50 10° NNE
Cosmos 1733 Rocket 3.1 07:13:20 75° ENE 07:13:20 75° ENE 07:17:39 10° N
SL-8 R/B 4.0 07:15:14 54° ESE 07:15:14 54° ESE 07:19:31 10° ENE
Cosmos 1140 Rocket 4.5 07:14:54 33° SE 07:16:13 38° ESE 07:21:02 10° NE
Cosmos 2297 Rocket 3.5 07:18:52 26° WNW 07:19:59 27° WNW 07:24:47 10° N
AQUA 3.7 07:16:51 10° N 07:21:36 71° WNW 07:21:46 70° W
NPP 3.7 07:18:08 10° N 07:23:26 59° WNW 07:24:07 54° WSW
Cosmos 2074 Rocket 4.0 07:23:14 53° SW 07:24:32 66° W 07:30:44 10° N
Cosmos 2237 Rocket 3.3 07:22:46 10° NW 07:26:23 27° W 07:26:23 27° W
ADEOS Rocket 2.7 07:29:11 53° SSW 07:30:27 70° WSW 07:35:57 10° NNW
Cosmos 2227 Rocket 3.3 07:29:32 27° W 07:30:45 30° WNW 07:35:40 10° N
Okean 2 4.3 07:27:39 10° N 07:31:40 45° E 07:33:05 32° SE
ARIANE 5 R/B 4.4 07:27:38 10° NE 07:31:50 24° E 07:35:20 13° SE
CZ-2D R/B 3.1 07:36:38 10° N 07:41:23 33° WNW 07:42:21 31° W
Meteor 1-28 Rocket 3.2 07:41:29 71° ESE 07:41:45 76° ENE 07:45:29 10° N
Cosmos 192 4.2 07:37:37 10° NNW 07:42:32 75° WSW 07:43:45 50° S
ADEOS II 2.1 07:38:16 10° N 07:43:29 65° WNW 07:44:44 48° SW
Meteor 2-9 Rocket 4.0 07:43:10 51° SW 07:44:25 69° W 07:49:44 10° N
NOSS 3-3 (A) 3.9 07:44:35 41° S 07:46:35 68° ESE 07:52:48 10° NE
NOSS 3-3 (C) 3.9 07:44:42 40° S 07:46:41 67° ESE 07:52:53 10° NE
IRS-1D 3.4 07:42:20 10° N 07:47:18 80° WNW 07:48:42 48° SSW
SL-16 R/B 2.2 07:46:12 10° NNW 07:51:46 58° WSW 07:53:48 37° SSW
Iridium 4 Rocket 3.7 07:47:41 10° N 07:53:14 74° W 07:55:47 35° SSW
MINOTAUR 4 R/B 4.3 07:55:21 52° WNW 07:55:21 52° WNW 07:58:26 10° NNW
Cosmos 2263 Rocket 2.2 07:54:29 37° SSW 07:56:48 83° ESE 08:02:31 10° NNE
Cosmos 1975 3.1 07:57:17 47° W 07:57:30 48° W 08:01:28 10° N
ATLAS CENTAUR R/B 1.9 07:57:40 37° SSE 07:58:23 42° ESE 08:02:04 10° NE
Cosmos 2221 Rocket 4.4 07:57:17 10° NNW 08:01:23 34° W 08:01:25 34° W
Landsat 4 3.8 07:58:21 10° N 08:01:58 52° WNW 08:02:12 50° W
Cosmos 407 Rocket 3.5 08:01:06 39° SW 08:03:02 71° WNW 08:08:19 10° NNE
CZ-4C R/B 3.4 07:55:42 10° NNW 08:03:08 66° NE 08:11:36 10° SE
Cosmos 1461 3.3 08:05:09 41° WSW 08:06:28 57° WNW 08:10:54 10° NNE
Cosmos 1707 2.6 08:04:47 10° N 08:08:38 87° W 08:10:01 38° S
Cosmos 2344 3.5 08:04:50 29° SW 08:09:03 82° NW 08:16:43 10° NNE
Cosmos 2341 Rocket 3.9 08:06:43 25° S 08:10:38 87° W 08:16:54 10° N
Meteor 1-29 4.2 08:08:09 10° NNW 08:10:46 26° WNW 08:10:46 26° WNW
Spot 1 4.4 08:08:42 10° SSE 08:12:51 62° ENE 08:16:53 10° N
Cosmos 2218 Rocket 4.4 08:07:38 14° S 08:13:09 65° E 08:19:26 10° NNE
Helios 1B rocket 4.3 08:11:53 10° NNW 08:14:31 17° WNW 08:14:58 17° WNW
In-Cosmos 22 4.3 08:09:09 10° N 08:14:58 85° E 08:20:41 10° S
Cosmos 1674 Rocket 4.1 08:13:30 10° NNW 08:17:38 40° W 08:18:39 34° SW
Cosmos 1238 Rocket 3.6 08:18:43 25° WNW 08:18:43 25° WNW 08:21:12 10° NNW
SL-08 R/B 4.2 08:15:20 10° SSE 08:20:06 53° ENE 08:24:56 10° N
COSMOS 2441 4.3 08:17:57 10° N 08:22:46 81° WNW 08:25:38 25° SSW
Nadezhda 3 Rocket 4.5 08:17:17 10° NNW 08:23:13 42° W 08:26:34 24° SW
Cosmos 1943 3.5 08:25:41 10° NNW 08:31:24 71° ENE 08:37:04 10° SSE
BREEZE-M DEB (TANK) 3.7 08:30:27 24° WNW 08:31:26 32° NNW 08:33:33 10° NE
IRS-P3 4.1 08:27:12 10° N 08:32:32 72° WNW 08:36:16 20° SSW
IDEFIX/ARIANE 42P 3.2 08:28:57 10° N 08:33:44 39° WNW 08:36:25 23° WSW
CZ-3 Stage 3 3.2 08:34:31 11° SSE 08:35:57 14° SE 08:38:47 10° ESE
Cosmos 1975 Rocket 3.3 08:31:36 10° N 08:36:00 72° E 08:40:19 10° SSE
CZ-2C R/B 2.9 08:34:11 10° NNE 08:38:40 53° E 08:43:11 10° S
Cosmos 1340 2.6 08:37:05 10° N 08:40:51 87° E 08:44:35 10° S
Cosmos 1900 4.4 08:37:53 20° SSW 08:41:25 80° ESE 08:46:23 10° NNE
Lacrosse 5 4.1 08:38:44 10° WNW 08:41:55 16° NNW 08:45:06 10° NNE
USA 215 3.3 08:36:09 10° NE 08:42:42 79° SE 08:47:58 17° SW
Cosmos 1400 Rocket 2.8 08:40:32 15° S 08:43:42 77° E 08:47:37 10° NNE
Cosmos 1626 2.7 08:41:28 10° N 08:45:06 57° E 08:48:43 10° SSE
SL-16 R/B 4.3 08:45:14 12° W 08:45:49 12° W 08:48:01 10° WNW
Meteor 1-12 Rocket 4.2 08:45:08 13° SSW 08:50:09 72° W 08:55:52 10° N
Cosmos 1674 2.7 08:47:25 10° NNW 08:51:13 62° W 08:54:58 10° S
BREEZE-M DEB (TANK) 4.5 08:45:59 10° WSW 08:55:03 40° NNW 08:58:11 10° NE
Cosmos 1821 Rocket 4.2 09:00:05 10° S 09:06:12 73° E 09:12:18 10° N
CZ-4B R/B 3.7 09:01:41 10° N 09:06:21 47° WNW 09:10:43 11° SW
ASTRO E2 3.9 09:05:37 15° SW 09:08:04 27° S 09:11:26 10° ESE
Cosmos 1025 Rocket 3.0 09:05:40 10° N 09:10:00 86° W 09:14:20 10° S
Cosmos 44 3.5 09:05:04 10° NW 09:10:05 52° WSW 09:14:46 10° S
Cosmos 1844 Rocket 3.0 09:04:51 10° SSW 09:10:27 69° ESE 09:16:06 10° NNE
ARIANE 5 R/B 3.2 09:06:13 10° N 09:10:59 38° WNW 09:15:40 10° SW
BREEZE-M DEB (TANK) 3.3 09:08:17 10° WNW 09:11:08 52° NNE 09:14:39 10° ESE
Iridium 51 3.9 09:10:01 10° S 09:13:27 86° W 09:16:56 10° N
FENGYUN 3A 3.7 09:12:44 10° NNE 09:18:12 87° WNW 09:23:36 10° SSW
Cosmos 1603 4.0 09:13:28 10° NW 09:18:47 44° WSW 09:24:06 10° S
CZ-2D R/B 4.3 09:15:10 10° N 09:18:47 33° WNW 09:22:26 10° SW
Milstar 3 3.8 09:15:44 10° SW 09:21:27 30° SSE 09:27:33 10° ESE
Okean 2 Rocket 3.2 09:18:50 10° SSW 09:23:19 67° W 09:27:50 10° N
Spot 4 Rocket 4.4 09:18:22 10° N 09:23:20 50° WNW 09:28:18 10° SW
DNEPR-1 R/B 4.5 09:18:59 10° SSW 09:24:39 60° ESE 09:29:23 10° NE
CZ-2C R/B 2.8 09:21:58 10° N 09:25:38 57° WNW 09:29:18 10° SSW
Sich 1 Rocket 4.2 09:25:21 10° SSW 09:29:26 38° WNW 09:33:34 10° N
Cosmos 1805 4.5 09:26:53 10° SW 09:30:06 25° WNW 09:33:21 10° NNW
MOS 1 Rocket 3.5 09:26:27 10° S 09:31:27 83° WSW 09:36:47 10° NNW
Cosmos 1867 4.2 09:26:11 10° SSW 09:31:28 57° ESE 09:36:50 10° NE
NOSS 3-4 (A) 4.4 09:25:05 10° NNW 09:32:12 70° NE 09:40:05 10° SE
NOSS 3-4 (C) 4.4 09:25:11 10° NNW 09:32:18 69° NE 09:40:12 10° SE
CZ-3 R/B 4.0 09:16:03 10° SW 09:38:55 36° S 09:46:20 10° ESE
